N2XGL-1 Weather Reports


Display with metric or nautical units.
time (UTC)temp
F
wind
direction
speed
MPH
gust
MPH
rain 1hr
in
rain 24hr
in
rain mn
in
humidity
%
barometer
mb
20240624074002 64 0 0.0 0.0 0.00 0.00 0.00 52 1004.9
20240624073133 64 0 0.0 1.0 0.00 0.00 0.00 51 1004.9
20240624072223 64 248 1.0 3.0 0.00 0.00 0.00 51 1005.1
20240624071233 65 270 1.0 2.0 0.00 0.00 0.00 53 1005.1
20240624070421 65 0 0.0 1.0 0.00 0.00 0.00 52 1005.2
20240624065541 65 0 0.0 1.0 0.00 0.00 0.00 53 1005.1
20240624064718 65 270 1.0 3.0 0.00 0.00 0.00 55 1005.3
20240624063813 66 0 0.0 1.0 0.00 0.00 0.00 55 1005.4
20240624062901 67 270 3.0 5.0 0.00 0.00 0.00 61 1005.6
20240624062041 67 270 3.0 5.0 0.00 0.00 0.00 61 1005.6
20240624061148 67 225 1.0 2.0 0.00 0.00 0.00 61 1005.6
20240624060248 68 180 2.0 4.0 0.00 0.00 0.00 59 1005.7
20240624055338 68 0 0.0 1.0 0.00 0.00 0.00 57 1005.7
20240624054421 69 270 1.0 2.0 0.00 0.00 0.00 57 1005.8
20240624053602 69 270 1.0 2.0 0.00 0.00 0.00 57 1005.8
20240624052602 70 0 0.0 1.0 0.00 0.00 0.00 54 1005.9
20240624051708 70 0 0.0 3.0 0.00 0.00 0.00 47 1006.0
20240624050821 71 0 0.0 1.0 0.00 0.00 0.00 45 1006.1
20240624045901 71 248 1.0 3.0 0.00 0.00 0.00 46 1006.0
20240624045033 71 225 1.0 2.0 0.00 0.00 0.00 50 1006.1
20240624044039 72 22 1.0 3.0 0.00 0.00 0.00 45 1006.1
20240624043228 72 0 1.0 3.0 0.00 0.00 0.00 44 1006.1
20240624042353 72 0 4.0 8.0 0.00 0.00 0.00 45 1005.9
20240624041443 72 0 0.0 2.0 0.00 0.00 0.00 42 1005.7
20240624040458 73 338 2.0 3.0 0.00 0.00 0.00 42 1005.6
20240624035521 74 270 2.0 3.0 0.00 0.00 0.00 44 1005.6
20240624034618 75 270 2.0 5.0 0.00 0.00 0.00 45 1005.6
20240624033622 76 248 2.0 3.0 0.00 0.00 0.00 46 1005.3
20240624032816 76 0 1.0 4.0 0.00 0.00 0.00 38 1005.1
20240624032743 76 0 1.0 4.0 0.00 0.00 0.00 38 1005.1
20240624031921 77 0 3.0 5.0 0.00 0.00 0.00 40 1005.0
20240624030923 77 0 3.0 5.0 0.00 0.00 0.00 38 1005.0
20240624030108 77 0 3.0 5.0 0.00 0.00 0.00 40 1004.8
20240624025228 78 0 3.0 6.0 0.00 0.00 0.00 41 1004.8
20240624024238 79 0 4.0 6.0 0.00 0.00 0.00 41 1004.9
20240624023402 79 0 2.0 4.0 0.00 0.00 0.00 40 1004.9
20240624022418 80 338 2.0 5.0 0.00 0.00 0.00 35 1005.0
20240624021541 80 0 4.0 6.0 0.00 0.00 0.00 37 1005.0
20240624020618 81 0 4.0 6.0 0.00 0.00 0.00 46 1004.9
20240624015744 81 0 3.0 7.0 0.00 0.00 0.00 47 1004.7
20240624014941 82 180 2.0 5.0 0.00 0.00 0.00 46 1004.6
20240624014132 82 180 3.0 10.0 0.00 0.00 0.00 46 1004.6
20240624013313 83 338 1.0 3.0 0.00 0.00 0.00 40 1004.2
20240624012313 84 315 1.0 3.0 0.00 0.00 0.00 43 1004.2
20240624011448 86 180 1.0 3.0 0.00 0.00 0.00 41 1004.4
20240624010508 87 202 2.0 4.0 0.00 0.00 0.00 40 1004.6
20240624005649 86 0 1.0 2.0 0.00 0.00 0.00 29 1004.6
20240624004813 87 22 4.0 8.0 0.00 0.00 0.00 28 1004.5
20240624003903 87 22 2.0 6.0 0.00 0.00 0.00 29 1004.6
20240624002938 87 45 3.0 10.0 0.00 0.00 0.00 34 1004.7
20240624002118 87 292 1.0 4.0 0.00 0.00 0.00 35 1004.6
20240624001258 85 292 5.0 16.0 0.00 0.00 0.00 27 1004.5
20240624000312 84 0 3.0 6.0 0.00 0.00 0.00 30 1004.7
20240623235401 85 270 4.0 10.0 0.00 0.00 0.00 40 1005.0
20240623234538 85 270 4.0 7.0 0.00 0.00 0.00 35 1005.0
20240623233734 86 0 2.0 4.0 0.00 0.00 0.00 32 1004.7
20240623232918 86 315 1.0 3.0 0.00 0.00 0.00 31 1004.7
20240623231958 87 0 2.0 4.0 0.00 0.00 0.00 29 1004.7
20240623231001 88 22 2.0 6.0 0.00 0.00 0.00 29 1004.6
20240623230116 88 22 2.0 4.0 0.00 0.00 0.00 29 1004.7
20240623225241 88 0 2.0 4.0 0.00 0.00 0.00 29 1004.8
20240623224351 88 292 1.0 2.0 0.00 0.00 0.00 31 1004.8
20240623223533 88 338 1.0 2.0 0.00 0.00 0.00 30 1004.8
20240623222721 88 248 2.0 6.0 0.00 0.03 0.00 31 1004.9
20240623221834 89 315 2.0 4.0 0.00 0.05 0.00 31 1005.1
20240623220848 89 315 2.0 5.0 0.00 0.05 0.00 33 1005.2
20240623215913 90 292 1.0 3.0 0.00 0.05 0.00 29 1005.3
20240623214948 91 45 1.0 3.0 0.00 0.05 0.00 22 1005.4
20240623213108 92 135 4.0 10.0 0.00 0.05 0.00 33 1005.5
20240623212144 92 112 3.0 6.0 0.00 0.05 0.00 25 1005.6
20240623211343 92 180 1.0 5.0 0.00 0.05 0.00 35 1005.7
20240623210511 95 158 1.0 3.0 0.00 0.05 0.00 18 1005.8
20240623205602 95 180 2.0 5.0 0.00 0.05 0.00 28 1005.9
20240623204753 95 180 3.0 6.0 0.00 0.05 0.00 28 1005.8
20240623203858 94 180 2.0 4.0 0.00 0.05 0.00 22 1006.0
20240623202922 92 22 1.0 3.0 0.00 0.05 0.00 32 1006.1
20240623201943 92 338 1.0 4.0 0.00 0.05 0.00 33 1006.4
20240623201037 92 248 1.0 3.0 0.00 0.05 0.00 30 1006.5
20240623200218 90 90 2.0 4.0 0.00 0.05 0.00 31 1006.5
20240623195313 92 158 2.0 5.0 0.00 0.05 0.00 24 1006.6
20240623193645 94 135 3.0 6.0 0.00 0.05 0.00 31 1006.8
20240623192648 93 158 3.0 7.0 0.00 0.05 0.00 28 1006.9
20240623191713 93 158 2.0 7.0 0.00 0.05 0.00 25 1007.1
20240623190728 92 135 4.0 11.0 0.00 0.05 0.00 35 1007.2
20240623185802 92 180 2.0 5.0 0.00 0.05 0.00 32 1007.2
20240623184914 92 158 4.0 6.0 0.00 0.05 0.00 34 1007.4
20240623183108 90 22 2.0 5.0 0.00 0.05 0.00 24 1007.7
20240623182233 91 158 2.0 4.0 0.00 0.05 0.00 23 1007.8
20240623181403 93 135 2.0 4.0 0.00 0.05 0.00 23 1007.9
20240623180433 93 158 3.0 6.0 0.00 0.05 0.00 26 1007.9
20240623175454 92 22 2.0 5.0 0.00 0.05 0.00 28 1008.0
20240623174533 92 22 3.0 5.0 0.00 0.05 0.00 22 1008.0
20240623173714 92 0 2.0 7.0 0.00 0.05 0.00 26 1008.0
20240623172803 92 112 4.0 9.0 0.00 0.05 0.00 31 1008.0
20240623171928 91 135 3.0 5.0 0.00 0.05 0.00 32 1008.2
20240623171119 91 90 3.0 6.0 0.00 0.05 0.00 26 1008.1
20240623170213 91 112 2.0 4.0 0.00 0.05 0.00 35 1008.3
20240623165301 90 158 2.0 6.0 0.00 0.05 0.00 36 1008.3
20240623164318 89 112 3.0 6.0 0.00 0.05 0.00 42 1008.4
20240623163338 89 135 2.0 6.0 0.00 0.05 0.00 40 1008.7
20240623162442 88 112 3.0 5.0 0.00 0.05 0.00 39 1008.8
20240623161546 87 158 2.0 5.0 0.00 0.05 0.00 39 1009.0
20240623160742 86 112 3.0 5.0 0.00 0.05 0.00 42 1009.1
20240623155748 85 112 3.0 5.0 0.00 0.05 0.00 42 1009.2
20240623154928 82 90 2.0 4.0 0.00 0.05 0.00 47 1009.3
20240623153214 79 112 1.0 3.0 0.00 0.05 0.00 53 1009.5
20240623152258 75 158 1.0 2.0 0.00 0.05 0.00 53 1009.6
20240623151440 73 112 1.0 2.0 0.00 0.05 0.00 59 1009.7
20240623150548 72 180 1.0 2.0 0.00 0.05 0.00 60 1009.9
20240623145614 71 135 1.0 2.0 0.00 0.05 0.00 61 1010.0
20240623144623 70 135 1.0 2.0 0.00 0.05 0.00 61 1010.1
20240623143738 68 0 0.0 2.0 0.00 0.05 0.00 64 1010.2
20240623142743 67 135 1.0 3.0 0.00 0.05 0.00 63 1010.2
20240623141753 66 112 1.0 3.0 0.00 0.05 0.00 68 1010.3
20240623140833 64 135 1.0 2.0 0.00 0.05 0.00 69 1010.4
20240623135942 63 112 1.0 2.0 0.00 0.05 0.00 72 1010.5
20240623135033 62 68 1.0 3.0 0.00 0.05 0.00 75 1010.5
20240623134048 61 45 1.0 4.0 0.00 0.05 0.00 80 1010.4
20240623133148 60 90 1.0 2.0 0.00 0.05 0.00 81 1010.5
20240623132208 59 0 0.0 1.0 0.00 0.05 0.00 79 1010.5
20240623131238 58 0 0.0 1.0 0.00 0.05 0.00 80 1010.5
20240623130318 57 0 0.0 1.0 0.00 0.05 0.00 80 1010.5
20240623125505 57 0 0.0 1.0 0.00 0.05 0.00 77 1010.6
20240623124628 57 0 0.0 1.0 0.00 0.05 0.00 76 1010.6
20240623123738 57 292 1.0 2.0 0.00 0.05 0.00 76 1010.5
20240623122803 57 292 1.0 2.0 0.00 0.05 0.00 76 1010.4
20240623121942 56 0 0.0 1.0 0.00 0.05 0.00 72 1010.4
20240623121133 56 0 0.0 0.0 0.00 0.05 0.00 71 1010.4
20240623120328 56 45 2.0 3.0 0.00 0.05 0.00 72 1010.4
20240623115353 56 45 1.0 3.0 0.00 0.05 0.00 70 1010.3
20240623114358 56 0 0.0 2.0 0.00 0.05 0.00 69 1010.2
20240623113544 56 0 0.0 2.0 0.00 0.05 0.00 70 1010.1
20240623112713 56 45 1.0 2.0 0.00 0.05 0.00 71 1010.1
20240623111818 56 225 1.0 2.0 0.00 0.05 0.00 70 1010.1
20240623110828 56 22 1.0 2.0 0.00 0.05 0.00 72 1010.0
20240623105848 56 0 0.0 2.0 0.00 0.05 0.00 70 1009.9
20240623104953 56 0 0.0 1.0 0.00 0.05 0.00 71 1009.9
20240623104018 56 0 1.0 2.0 0.00 0.05 0.00 72 1009.9
20240623103121 56 338 1.0 3.0 0.00 0.05 0.00 73 1009.8
20240623102248 56 0 0.0 1.0 0.00 0.05 0.00 71 1009.8
20240623101441 56 0 0.0 1.0 0.00 0.05 0.00 71 1009.9
20240623100621 56 225 1.0 2.0 0.00 0.05 0.00 71 1009.9
20240623095708 56 0 0.0 1.0 0.00 0.05 0.00 69 1009.9
20240623094718 57 0 0.0 1.0 0.00 0.05 0.00 69 1009.7
20240623093758 57 270 1.0 3.0 0.00 0.05 0.00 70 1009.7
20240623092933 57 270 1.0 2.0 0.00 0.05 0.00 70 1009.8
20240623092018 58 315 1.0 2.0 0.00 0.05 0.00 69 1009.9
20240623091153 58 292 1.0 2.0 0.00 0.05 0.00 70 1009.8
20240623090338 59 112 1.0 2.0 0.00 0.05 0.00 72 1009.8
20240623085521 59 270 1.0 4.0 0.00 0.05 0.00 69 1009.9
20240623084703 59 270 1.0 2.0 0.00 0.05 0.00 69 1009.9
20240623083848 60 248 1.0 3.0 0.00 0.05 0.00 65 1010.0
20240623083019 60 0 0.0 2.0 0.00 0.05 0.00 66 1010.0
20240623082033 60 68 1.0 2.0 0.00 0.05 0.00 67 1009.9
20240623081138 60 135 2.0 4.0 0.00 0.05 0.00 64 1010.1
20240623080308 59 338 1.0 3.0 0.00 0.05 0.00 60 1010.0
20240623075418 59 270 2.0 3.0 0.00 0.05 0.00 60 1010.1